Weather History for Evergreen, AL

Change the Weather History Date:

Tuesday, May 8, 2012

  Actual Average (KPRN) Record (KPRN)
Temperature  
Mean Temperature 78 °F -  
Max Temperature 91 °F 83 °F 93 °F (1955)
Min Temperature 66 °F 58 °F 42 °F (1992)
Cooling Degree Days 13    
Growing Degree Days 28 (Base 50)    
Moisture  
Dew Point 66 °F    
Average Humidity 71    
Maximum Humidity 90    
Minimum Humidity 42    
Precipitation  
Precipitation 0.03 in - - ()
Sea Level Pressure  
Sea Level Pressure 29.89 in    
Wind  
Wind Speed 2 mph (South)    
Max Wind Speed 15 mph    
Max Gust Speed 22 mph    
Visibility 9 miles    
Events Rain , Thunderstorm    
Averages and records for this station are not official NWS values.
T = Trace of Precipitation, MM = Missing Value Source: NWS Daily Summary

Daily Weather History Graph

Daily Weather History Graph

Search for Another Location

Airport:

Trip Planner

Search our weather history database for the weather conditions in past years. The results will help you decide how hot, cold, wet, or windy it might be!

Date:

Astronomy

May. 08, 2012 Rise Set
Actual Time 5:56 AM CDT 7:32 PM CDT
Civil Twilight 5:30 AM CDT 7:59 PM CDT
Nautical Twilight 4:59 AM CDT 8:30 PM CDT
Astronomical Twilight 4:26 AM CDT 9:03 PM CDT
Moon 10:38 PM CDT (5/8) 8:09 AM CDT (5/8)
Length of Visible Light 14h 28m
Length of Day
13h 36m
Waning Gibbous, 90% of the Moon is Illuminated
May 8
Waning Gibbous
May 12
Last Quarter
May 20
New
May 28
First Quarter
Jun 4
Full

Hourly Weather History & Observations

Time (CDT) Temp. Heat Index Dew Point Humidity Pressure Visibility Wind Dir Wind Speed Gust Speed Precip Events Conditions
12:53 AM 69.1 °F - 64.9 °F 87% 29.89 in 9.0 mi Calm Calm - N/A   Clear
1:53 AM 68.0 °F - 64.0 °F 87% 29.89 in 8.0 mi Calm Calm - N/A   Clear
2:53 AM 68.0 °F - 64.0 °F 87% 29.89 in 7.0 mi Calm Calm - N/A   Clear
3:53 AM 68.0 °F - 64.0 °F 87% 29.90 in 9.0 mi Calm Calm - N/A   Clear
4:53 AM 66.9 °F - 64.0 °F 90% 29.90 in 8.0 mi Calm Calm - N/A   Clear
5:53 AM 68.0 °F - 64.0 °F 87% 29.91 in 8.0 mi Calm Calm - N/A   Clear
6:53 AM 70.0 °F - 64.9 °F 84% 29.93 in 7.0 mi Calm Calm - N/A   Clear
7:53 AM 73.9 °F - 66.0 °F 76% 29.92 in 10.0 mi Calm Calm - N/A   Clear
8:53 AM 79.0 °F - 66.0 °F 64% 29.92 in 10.0 mi Calm Calm - N/A   Clear
9:53 AM 82.9 °F 85.4 °F 66.9 °F 58% 29.93 in 10.0 mi Variable 5.8 mph - N/A   Clear
10:53 AM 84.9 °F 88.2 °F 68.0 °F 57% 29.94 in 10.0 mi Variable 4.6 mph - N/A   Partly Cloudy
11:53 AM 87.1 °F 89.2 °F 66.0 °F 49% 29.92 in 10.0 mi Variable 3.5 mph - N/A   Partly Cloudy
12:53 PM 84.9 °F 86.6 °F 64.9 °F 51% 29.91 in 10.0 mi Calm Calm - N/A   Mostly Cloudy
1:53 PM 89.1 °F 91.0 °F 64.9 °F 45% 29.88 in 10.0 mi WSW 5.8 mph - N/A   Partly Cloudy
2:53 PM 90.0 °F 91.7 °F 64.9 °F 43% 29.87 in 10.0 mi Variable 4.6 mph - N/A   Scattered Clouds
3:27 PM 89.6 °F 91.1 °F 64.4 °F 43% 29.86 in 10.0 mi Calm Calm - N/A Thunderstorm Mostly Cloudy
3:42 PM 89.6 °F 91.1 °F 64.4 °F 43% 29.85 in 10.0 mi Variable 4.6 mph - N/A   Scattered Clouds
3:53 PM 90.0 °F 91.3 °F 64.0 °F 42% 29.84 in 10.0 mi West 4.6 mph - N/A   Scattered Clouds
4:45 PM 82.4 °F 84.6 °F 66.2 °F 58% 29.86 in 10.0 mi ESE 10.4 mph - N/A Thunderstorm Mostly Cloudy
4:53 PM 81.0 °F 83.0 °F 66.0 °F 60% 29.86 in 10.0 mi SSE 15.0 mph 21.9 mph 0.00 in Rain , Thunderstorm Light Rain
5:02 PM 78.8 °F - 66.2 °F 65% 29.87 in 10.0 mi SE 10.4 mph - 0.00 in   Mostly Cloudy
5:13 PM 77.0 °F - 66.2 °F 69% 29.87 in 10.0 mi SE 11.5 mph 19.6 mph 0.00 in Thunderstorm Overcast
5:28 PM 73.4 °F - 68.0 °F 83% 29.87 in 5.0 mi SE 5.8 mph - 0.00 in Rain Light Rain
5:53 PM 73.0 °F - 68.0 °F 84% 29.86 in 8.0 mi SSE 6.9 mph - 0.00 in Rain Light Rain
6:53 PM 73.0 °F - 68.0 °F 84% 29.87 in 9.0 mi Calm Calm - 0.01 in Rain Light Rain
7:53 PM 72.0 °F - 66.9 °F 84% 29.89 in 9.0 mi NNW 4.6 mph - 0.00 in   Mostly Cloudy
8:53 PM 72.0 °F - 66.9 °F 84% 29.92 in 10.0 mi NNE 3.5 mph - 0.01 in   Overcast
9:24 PM 71.6 °F - 68.0 °F 88% 29.95 in 9.0 mi NW 3.5 mph - N/A   Overcast
9:36 PM 71.6 °F - 66.2 °F 83% 29.94 in 10.0 mi NNW 4.6 mph - N/A   Mostly Cloudy
9:53 PM 72.0 °F - 66.9 °F 84% 29.92 in 9.0 mi North 3.5 mph - N/A   Scattered Clouds
10:53 PM 72.0 °F - 66.9 °F 84% 29.88 in 9.0 mi Calm Calm - 0.01 in   Clear
11:53 PM 71.1 °F - 66.9 °F 87% 29.88 in 6.0 mi West 3.5 mph - N/A   Mostly Cloudy